CW3742 Weather Reports


time (UTC)temp
C
wind
direction
speed
KPH
gust
KPH
rain 1hr
cm
rain 24hr
cm
rain mn
cm
humidity
%
barometer
mb
20260831193037 33 225 12.9 24.1 0.00 0.00 0.00 58 994.1
20260831190017 32 225 12.9 25.7 0.00 0.00 0.00 57 994.0
20260831183018 32 225 14.5 24.1 0.00 0.00 0.00 58 994.3
20260831180017 32 225 12.9 25.7 0.00 0.00 0.00 58 994.3
20260831173017 32 225 14.5 24.1 0.00 0.00 0.00 62 994.4
20260831170017 31 225 12.9 24.1 0.00 0.00 0.00 63 994.6
20260831163017 30 225 14.5 24.1 0.00 0.00 0.00 65 994.8
20260831160017 29 225 16.1 27.4 0.00 0.00 0.00 64 994.7
20260831153018 29 225 17.7 35.4 0.00 0.00 0.00 64 994.5
20260831150017 28 225 17.7 32.2 0.00 0.00 0.00 65 994.2
20260831143017 27 203 17.7 32.2 0.00 0.00 0.00 67 994.2
20260831140037 26 203 17.7 33.8 0.00 0.00 0.00 69 994.2
20260831133017 26 203 17.7 32.2 0.00 0.00 0.00 69 994.0
20260831130017 26 203 16.1 32.2 0.00 0.00 0.00 71 994.0
20260831123017 25 203 16.1 30.6 0.00 0.00 0.00 71 994.1
20260831120017 25 203 16.1 33.8 0.00 0.00 0.00 71 993.9
20260831113039 25 203 14.5 30.6 0.00 0.00 0.00 71 993.8
20260831110017 25 203 14.5 27.4 0.00 0.00 0.00 72 993.8
20260831103019 24 180 11.3 20.9 0.00 0.00 0.00 75 993.9
20260831100017 24 180 12.9 22.5 0.00 0.00 0.00 75 993.8
20260831093017 23 180 9.7 17.7 0.00 0.00 0.00 77 993.9
20260831090017 23 180 9.7 17.7 0.00 0.00 0.00 79 993.8
20260831083352 23 180 9.7 16.1 0.00 0.00 0.00 80 993.6
20260831073017 23 158 9.7 17.7 0.00 0.00 0.00 78 993.5
20260831070017 24 158 9.7 17.7 0.00 0.00 0.00 77 993.6
20260831063017 24 180 9.7 17.7 0.00 0.00 0.00 77 993.7
20260831060017 25 158 9.7 22.5 0.00 0.00 0.00 77 993.9
20260831053017 25 158 11.3 17.7 0.00 0.00 0.00 76 993.9
20260831050038 25 158 12.9 22.5 0.00 0.00 0.00 76 993.7
20260831043017 25 158 12.9 22.5 0.00 0.00 0.00 76 993.9
20260831040017 25 158 12.9 20.9 0.00 0.00 0.00 77 994.1
20260831033017 25 158 11.3 20.9 0.00 0.00 0.00 78 994.2
20260831030017 26 135 9.7 17.7 0.00 0.00 0.00 80 994.2
20260831023019 26 135 8.0 17.7 0.00 0.00 0.00 80 994.2
20260831020017 26 135 8.0 14.5 0.00 0.00 0.00 81 994.0
20260831013039 26 135 9.7 14.5 0.00 0.00 0.00 83 993.5
20260831010017 27 135 9.7 17.7 0.00 0.00 0.00 81 993.3
20260831003017 27 113 8.0 17.7 0.00 0.00 0.00 79 993.4
20260831000017 29 135 9.7 17.7 0.00 0.00 0.00 75 993.5
20260830233018 30 135 11.3 17.7 0.00 0.00 0.00 73 993.9
20260830230017 30 135 11.3 20.9 0.00 0.00 0.00 71 993.5
20260830223017 30 135 11.3 24.1 0.00 0.00 0.00 67 993.4
20260830220017 30 135 12.9 22.5 0.00 0.00 0.00 70 993.6
20260830213017 31 135 12.9 29.0 0.00 0.00 0.00 64 993.9
20260830210019 29 113 9.7 20.9 0.00 0.00 0.00 77 994.3
20260830203017 28 90 9.7 19.3 0.00 0.00 0.00 77 994.9
20260830200017 28 113 6.4 17.7 0.00 0.00 0.00 78 995.2